H1 CPF 2 NER 2022 12 10 9 344 01 glonass127 H2 1106403 9127 37869 2022 12 10 0 0 0 2022 12 13 23 45 0 900 1 1 0 0 0 1 H9 10 0 59923 0.00000 0 13840994.695 17867455.764 11913297.988 10 0 59923 900.00000 0 12601970.651 16811831.161 14542687.003 10 0 59923 1800.00000 0 11030095.630 15687995.332 16891069.850 10 0 59923 2700.00000 0 9144052.503 14555501.230 18913195.299 10 0 59923 3600.00000 0 6974822.414 13470720.514 20570107.942 10 0 59923 4500.00000 0 4564649.327 12484452.621 21829879.121 10 0 59923 5400.00000 0 1965543.394 11639785.611 22668206.290 10 0 59923 6300.00000 0 -762616.574 10970296.049 23068871.010 10 0 59923 7200.00000 0 -3554305.205 10498661.401 23024047.945 10 0 59923 8100.00000 0 -6340808.138 10235741.638 22534459.536 10 0 59923 9000.00000 0 -9052816.425 10180167.940 21609373.250 10 0 59923 9900.00000 0 -11623053.305 10318456.015 20266440.619 10 0 59923 10800.00000 0 -13988827.260 10625640.383 18531379.659 10 0 59923 11700.00000 0 -16094407.587 11066404.795 16437504.726 10 0 59923 12600.00000 0 -17893125.079 11596663.556 14025110.488 10 0 59923 13500.00000 0 -19349110.946 12165529.602 11340719.341 10 0 59923 14400.00000 0 -20438601.100 12717588.656 8436204.319 10 0 59923 15300.00000 0 -21150750.147 13195385.285 5367802.362 10 0 59923 16200.00000 0 -21487919.389 13542016.801 2195035.409 10 0 59923 17100.00000 0 -21465424.811 13703725.450 -1020440.811 10 0 59923 18000.00000 0 -21110753.691 13632378.268 -4216038.092 10 0 59923 18900.00000 0 -20462281.219 13287727.801 -7329463.406 10 0 59923 19800.00000 0 -19567540.085 12639355.344 -10299947.908 10 0 59923 20700.00000 0 -18481115.667 11668211.352 -13069451.610 10 0 59923 21600.00000 0 -17262255.992 10367684.493 -15583818.283 10 0 59923 22500.00000 0 -15972298.447 8744150.876 -17793855.908 10 0 59923 23400.00000 0 -14672023.513 6816977.383 -19656319.375 10 0 59923 24300.00000 0 -13419049.204 4617976.649 -21134774.366 10 0 59923 25200.00000 0 -12265378.209 2190334.989 -22200323.947 10 0 59923 26100.00000 0 -11255203.127 -412942.433 -22832182.500 10 0 59923 27000.00000 0 -10423063.783 -3131004.056 -23018085.135 10 0 59923 27900.00000 0 -9792435.156 -5897458.873 -22754524.423 10 0 59923 28800.00000 0 -9374805.539 -8642920.303 -22046810.105 10 0 59923 29700.00000 0 -9169283.137 -11297679.582 -20908951.382 10 0 59923 30600.00000 0 -9162746.242 -13794395.925 -19363365.105 10 0 59923 31500.00000 0 -9330528.677 -16070690.297 -17440416.999 10 0 59923 32400.00000 0 -9637609.125 -18071534.296 -15177806.388 10 0 59923 33300.00000 0 -10040251.508 -19751334.788 -12619808.088 10 0 59923 34200.00000 0 -10488024.511 -21075628.255 -9816388.010 10 0 59923 35100.00000 0 -10926112.584 -22022315.939 -6822211.326 10 0 59923 36000.00000 0 -11297818.857 -22582390.544 -3695563.963 10 0 59923 36900.00000 0 -11547152.855 -22760127.023 -497209.741 10 0 59923 37800.00000 0 -11621393.088 -22572732.599 2710793.760 10 0 59923 38700.00000 0 -11473516.278 -22049473.851 5866297.193 10 0 59923 39600.00000 0 -11064391.431 -21230320.245 8908255.862 10 0 59923 40500.00000 0 -10364647.327 -20164163.269 11777897.990 10 0 59923 41400.00000 0 -9356136.227 -18906687.317 14419843.314 10 0 59923 42300.00000 0 -8032933.657 -17517982.164 16783151.783 10 0 59923 43200.00000 0 -6401833.485 -16059996.747 18822284.108 10 0 59923 44100.00000 0 -4482318.209 -14593939.655 20497957.724 10 0 59923 45000.00000 0 -2306005.755 -13177733.275 21777883.849 10 0 59923 45900.00000 0 84404.951 -11863625.714 22637373.515 10 0 59923 46800.00000 0 2636647.322 -10696057.798 23059802.671 10 0 59923 47700.00000 0 5290798.696 -9709872.000 23036928.632 10 0 59923 48600.00000 0 7981513.713 -8928936.133 22569052.420 10 0 59923 49500.00000 0 10640490.056 -8365238.079 21665023.807 10 0 59923 50400.00000 0 13199067.451 -8018488.932 20342088.126 10 0 59923 51300.00000 0 15590855.162 -7876251.483 18625576.353 10 0 59923 52200.00000 0 17754281.418 -7914589.772 16548442.352 10 0 59923 53100.00000 0 19634960.464 -8099214.170 14150653.871 10 0 59923 54000.00000 0 21187779.650 -8387075.886 11478446.439 10 0 59923 54900.00000 0 22378619.455 -8728345.847 8583452.104 10 0 59923 55800.00000 0 23185633.666 -9068696.358 5521717.744 10 0 59923 56700.00000 0 23600034.531 -9351790.397 2352630.264 10 0 59923 57600.00000 0 23626347.953 -9521873.771 -862231.525 10 0 59923 58500.00000 0 23282125.754 -9526359.995 -4060296.278 10 0 59923 59400.00000 0 22597125.087 -9318297.009 -7179227.043 10 0 59923 60300.00000 0 21611987.928 -8858609.053 -10158150.803 10 0 59923 61200.00000 0 20376475.261 -8118015.848 -12938864.982 10 0 59923 62100.00000 0 18947330.178 -7078544.606 -15466995.428 10 0 59923 63000.00000 0 17385860.479 -5734567.514 -17693081.165 10 0 59923 63900.00000 0 15755343.892 -4093317.766 -19573562.486 10 0 59923 64800.00000 0 14118366.947 -2174859.637 -21071651.211 10 0 59923 65700.00000 0 12534211.498 -11511.819 -22158064.487 10 0 59923 66600.00000 0 11056400.885 2353252.969 -22811606.573 10 0 59923 67500.00000 0 9730510.566 4866386.414 -23019586.580 10 0 59923 68400.00000 0 8592336.383 7467254.723 -22778063.835 10 0 59923 69300.00000 0 7666497.896 10089956.269 -22091916.312 10 0 59923 70200.00000 0 6965535.034 12665868.716 -20974731.554 10 0 59923 71100.00000 0 6489534.831 15126318.003 -19448523.253 10 0 59923 72000.00000 0 6226301.960 17405256.481 -17543280.395 10 0 59923 72900.00000 0 6152063.352 19441837.651 -15296359.324 10 0 59923 73800.00000 0 6232674.241 21182779.787 -12751732.230 10 0 59923 74700.00000 0 6425271.817 22584420.063 -9959108.476 10 0 59923 75600.00000 0 6680303.741 23614374.553 -6972947.523 10 0 59923 76500.00000 0 6943843.408 24252736.540 -3851384.137 10 0 59923 77400.00000 0 7160092.157 24492765.365 -655088.146 10 0 59923 78300.00000 0 7273961.470 24341039.804 2553918.234 10 0 59923 79200.00000 0 7233625.564 23817072.496 5713462.025 10 0 59923 80100.00000 0 6992936.787 22952404.334 8762416.707 10 0 59923 81000.00000 0 6513602.711 21789219.199 11641872.356 10 0 59923 81900.00000 0 5767034.398 20378538.775 14296257.122 10 0 59923 82800.00000 0 4735789.448 18778073.982 16674389.792 10 0 59923 83700.00000 0 3414550.519 17049822.993 18730445.034 10 0 59923 84600.00000 0 1810599.224 15257515.356 20424814.831 10 0 59923 85500.00000 0 -56234.008 13464007.451 21724851.640 10 0 59924 0.00000 0 -2154142.177 11728735.896 22605481.029 10 0 59924 900.00000 0 -4440414.551 10105331.661 23049674.134 10 0 59924 1800.00000 0 -6862964.447 8639494.146 23048771.049 10 0 59924 2700.00000 0 -9362254.847 7367208.371 22602651.171 10 0 59924 3600.00000 0 -11873542.165 6313380.127 21719745.882 10 0 59924 4500.00000 0 -14329349.297 5490943.952 20416893.129 10 0 59924 5400.00000 0 -16662068.278 4900480.994 18719035.158 10 0 59924 6300.00000 0 -18806587.203 4530363.127 16658763.189 10 0 59924 7200.00000 0 -20702834.188 4357418.462 14275715.463 10 0 59924 8100.00000 0 -22298133.726 4348091.913 11615837.731 10 0 59924 9000.00000 0 -23549277.480 4460053.844 8730517.904 10 0 59924 9900.00000 0 -24424222.290 4644190.871 5675609.506 10 0 59924 10800.00000 0 -24903342.916 4846896.175 2510361.097 10 0 59924 11700.00000 0 -24980184.915 5012563.320 -703728.701 10 0 59924 12600.00000 0 -24661683.597 5086178.072 -3904108.567 10 0 59924 13500.00000 0 -23967837.475 5015897.478 -7028400.645 10 0 59924 14400.00000 0 -22930847.754 4755505.194 -10015630.590 10 0 59924 15300.00000 0 -21593758.518 4266636.490 -12807435.858 10 0 59924 16200.00000 0 -20008653.982 3520675.635 -15349226.739 10 0 59924 17100.00000 0 -18234488.628 2500242.086 -17591275.332 10 0 59924 18000.00000 0 -16334642.261 1200199.381 -19489708.977 10 0 59924 18900.00000 0 -14374304.168 -371858.761 -21007386.828 10 0 59924 19800.00000 0 -12417798.035 -2195668.058 -22114640.822 10 0 59924 20700.00000 0 -10525961.966 -4238898.102 -22789865.295 10 0 59924 21600.00000 0 -8753695.286 -6458277.117 -23019943.083 10 0 59924 22500.00000 0 -7147776.398 -8801190.013 -22800499.533 10 0 59924 23400.00000 0 -5745043.978 -11207682.134 -22135979.711 10 0 59924 24300.00000 0 -4571017.679 -13612783.834 -21039548.021 10 0 59924 25200.00000 0 -3639015.261 -15949057.335 -19532813.215 10 0 59924 26100.00000 0 -2949801.473 -18149257.980 -17645385.535 10 0 59924 27000.00000 0 -2491780.934 -20148997.537 -15414276.171 10 0 59924 27900.00000 0 -2241723.892 -21889297.499 -12883152.404 10 0 59924 28800.00000 0 -2165991.055 -23318925.446 -10101464.714 10 0 59924 29700.00000 0 -2222202.565 -24396417.292 -7123464.505 10 0 59924 30600.00000 0 -2361277.688 -25091702.038 -4007133.062 10 0 59924 31500.00000 0 -2529756.591 -25387262.831 -813043.931 10 0 59924 32400.00000 0 -2672304.253 -25278788.059 2396818.262 10 0 59924 33300.00000 0 -2734289.629 -24775287.838 5560259.125 10 0 59924 34200.00000 0 -2664330.859 -23898673.614 8616072.495 10 0 59924 35100.00000 0 -2416699.466 -22682820.929 11505212.449 10 0 59924 36000.00000 0 -1953483.138 -21172156.446 14171917.667 10 0 59924 36900.00000 0 -1246417.352 -19419829.590 16564767.792 10 0 59924 37800.00000 0 -278310.222 -17485545.577 18637653.336 10 0 59924 38700.00000 0 955998.033 -15433149.803 20350642.521 10 0 59924 39600.00000 0 2449180.365 -13328063.040 21670730.492 10 0 59924 40500.00000 0 4181491.822 -11234672.295 22572458.625 10 0 59924 41400.00000 0 6121359.907 -9213783.428 23038393.775 10 0 59924 42300.00000 0 8226473.147 -7320238.910 23059459.529 10 0 59924 43200.00000 0 10445324.815 -5600797.156 22635113.837 10 0 59924 44100.00000 0 12719150.375 -4092359.386 21773369.560 10 0 59924 45000.00000 0 14984181.215 -2820616.210 20490656.813 10 0 59924 45900.00000 0 17174124.182 -1799169.306 18811528.354 10 0 59924 46800.00000 0 19222766.773 -1029164.696 16768211.686 10 0 59924 47700.00000 0 21066601.886 -499453.509 14400014.165 10 0 59924 48600.00000 0 22647364.383 -187274.686 11752590.031 10 0 59924 49500.00000 0 23914374.327 -59432.481 8877080.978 10 0 59924 50400.00000 0 24826588.584 -73920.961 5829144.754 10 0 59924 51300.00000 0 25354273.710 -181928.476 2667888.805 10 0 59924 52200.00000 0 25480227.986 -330138.529 -545271.470 10 0 59924 53100.00000 0 25200498.780 -463230.109 -3747808.000 10 0 59924 54000.00000 0 24524562.379 -526471.160 -6877305.322 10 0 59924 54900.00000 0 23474956.147 -468294.026 -9872691.010 10 0 59924 55800.00000 0 22086376.286 -242741.649 -12675445.646 10 0 59924 56700.00000 0 20404277.631 188321.843 -15230766.785 10 0 59924 57600.00000 0 18483033.621 853332.880 -17488662.119 10 0 59924 58500.00000 0 16383733.876 1769565.153 -19404948.208 10 0 59924 59400.00000 0 14171712.769 2942146.173 -20942133.367 10 0 59924 60300.00000 0 11913914.042 4363597.784 -22070165.789 10 0 59924 61200.00000 0 9676203.840 6013921.935 -22767031.022 10 0 59924 62100.00000 0 7520746.479 7861229.340 -23019186.391 10 0 59924 63000.00000 0 5503554.364 9862885.060 -22821823.653 10 0 59924 63900.00000 0 3672315.744 11967122.598 -22178954.962 10 0 59924 64800.00000 0 2064591.444 14115057.966 -21103321.161 10 0 59924 65700.00000 0 706455.567 16243018.078 -19616125.228 10 0 59924 66600.00000 0 -388364.276 18285084.431 -17746597.410 10 0 59924 67500.00000 0 -1218813.424 20175744.206 -15531402.095 10 0 59924 68400.00000 0 -1796292.502 21852536.677 -13013899.630 10 0 59924 69300.00000 0 -2143908.097 23258583.435 -10243279.238 10 0 59924 70200.00000 0 -2295226.825 24344896.420 -7273581.604 10 0 59924 71100.00000 0 -2292588.714 25072367.717 -4162631.619 10 0 59924 72000.00000 0 -2185054.035 25413358.953 -970903.452 10 0 59924 72900.00000 0 -2026072.699 25352825.567 2239659.073 10 0 59924 73800.00000 0 -1870976.331 24888931.018 5406843.373 10 0 59924 74700.00000 0 -1774399.757 24033127.589 8469366.815 10 0 59924 75600.00000 0 -1787740.807 22809702.696 11368050.522 10 0 59924 76500.00000 0 -1956764.951 21254811.637 14046946.547 10 0 59924 77400.00000 0 -2319454.487 19415038.595 16454398.009 10 0 59924 78300.00000 0 -2904191.337 17345546.644 18544013.615 10 0 59924 79200.00000 0 -3728348.358 15107893.693 20275539.884 10 0 59924 80100.00000 0 -4797347.052 12767604.365 21615616.403 10 0 59924 81000.00000 0 -6104220.460 10391597.022 22538401.716 10 0 59924 81900.00000 0 -7629699.600 8045570.521 23026059.596 10 0 59924 82800.00000 0 -9342820.668 5791456.597 23069097.670 10 0 59924 83700.00000 0 -11202029.351 3685040.841 22666552.635 10 0 59924 84600.00000 0 -13156738.649 1773848.459 21826018.532 10 0 59924 85500.00000 0 -15149278.170 95380.629 20563516.819 10 0 59925 0.00000 0 -17117156.708 -1324226.636 18903209.587 10 0 59925 900.00000 0 -18995547.951 -2471066.696 16876958.447 10 0 59925 1800.00000 0 -20719895.711 -3343811.555 14523737.647 10 0 59925 2700.00000 0 -22228535.505 -3953533.439 11888907.137 10 0 59925 3600.00000 0 -23465221.416 -4323002.926 9023359.292 10 0 59925 4500.00000 0 -24381453.680 -4485492.351 5982552.733 10 0 59925 5400.00000 0 -24938508.426 -4483133.201 2825450.322 10 0 59925 6300.00000 0 -25109082.651 -4364895.535 -386619.290 10 0 59925 7200.00000 0 -24878482.840 -4184274.052 -3591154.772 10 0 59925 8100.00000 0 -24245304.403 -3996778.732 -6725706.455 10 0 59925 9000.00000 0 -23221570.430 -3857337.116 -9729107.097 10 0 59925 9900.00000 0 -21832321.171 -3817719.896 -12542683.462 10 0 59925 10800.00000 0 -20114669.400 -3924101.209 -15111423.189 10 0 59925 11700.00000 0 -18116359.872 -4214859.757 -17385072.035 10 0 59925 12600.00000 0 -15893892.838 -4718716.859 -19319137.838 10 0 59925 13500.00000 0 -13510290.603 -5453293.167 -20875779.628 10 0 59925 14400.00000 0 -11032601.670 -6424147.691 -22024562.846 10 0 59925 15300.00000 0 -8529248.519 -7624341.817 -22743064.632 10 0 59925 16200.00000 0 -6067331.670 -9034548.140 -23017316.579 10 0 59925 17100.00000 0 -3710004.349 -10623700.264 -22842076.075 10 0 59925 18000.00000 0 -1514028.864 -12350156.142 -22220921.082 10 0 59925 18900.00000 0 472382.575 -14163325.383 -21166167.200 10 0 59925 19800.00000 0 2211352.423 -16005691.034 -19698609.611 10 0 59925 20700.00000 0 3676674.009 -17815139.388 -17847096.302 10 0 59925 21600.00000 0 4854645.355 -19527498.550 -15647942.412 10 0 59925 22500.00000 0 5744368.243 -21079177.811 -13144198.785 10 0 59925 23400.00000 0 6357503.141 -22409796.010 -10384790.759 10 0 59925 24300.00000 0 6717493.858 -23464688.061 -7423545.635 10 0 59925 25200.00000 0 6858298.188 -24197184.555 -4318129.264 10 0 59925 26100.00000 0 6822681.357 -24570569.444 -1128913.839 10 0 59925 27000.00000 0 6660147.208 -24559635.002 2082200.138 10 0 59925 27900.00000 0 6424596.631 -24151770.598 5252984.325 10 0 59925 28800.00000 0 6171813.487 -23347541.684 8322081.930 10 0 59925 29700.00000 0 5956884.658 -22160736.848 11230183.297 10 0 59925 30600.00000 0 5831662.820 -20617882.848 13921155.871 10 0 59925 31500.00000 0 5842377.867 -18757249.392 16343108.070 10 0 59925 32400.00000 0 6027496.145 -16627386.029 18449368.398 10 0 59925 33300.00000 0 6415915.884 -14285252.177 20199363.023 10 0 59925 34200.00000 0 7025573.011 -11794017.408 21559377.038 10 0 59925 35100.00000 0 7862514.617 -9220621.866 22503186.923 10 0 59925 36000.00000 0 8920478.290 -6633195.877 23012553.835 10 0 59925 36900.00000 0 10180995.071 -4098443.193 23077569.598 10 0 59925 37800.00000 0 11614012.727 -1679093.496 22696849.538 10 0 59925 38700.00000 0 13179015.190 568473.064 21877568.485 10 0 59925 39600.00000 0 14826593.860 2596333.116 20635338.622 10 0 59925 40500.00000 0 16500408.151 4366773.591 18993930.176 10 0 59925 41400.00000 0 18139456.488 5853619.785 16984838.394 10 0 59925 42300.00000 0 19680565.702 7043083.015 14646702.825 10 0 59925 43200.00000 0 21060997.135 7934092.196 12024587.576 10 0 59925 44100.00000 0 22221061.935 8538094.488 9169133.868 10 0 59925 45000.00000 0 23106636.535 8878331.961 6135599.096 10 0 59925 45900.00000 0 23671472.384 8988623.149 2982799.154 10 0 59925 46800.00000 0 23879201.494 8911699.407 -228026.666 10 0 59925 47700.00000 0 23704951.195 8697165.209 -3434406.574 10 0 59925 48600.00000 0 23136497.354 8399168.189 -6573859.587 10 0 59925 49500.00000 0 22174904.334 8073877.845 -9585126.535 10 0 59925 50400.00000 0 20834621.693 7776880.765 -12409383.168 10 0 59925 51300.00000 0 19143030.810 7560604.543 -14991409.821 10 0 59925 52200.00000 0 17139458.355 7471881.925 -17280692.715 10 0 59925 53100.00000 0 14873696.762 7549761.039 -19232433.095 10 0 59925 54000.00000 0 12404093.312 7823657.212 -20808442.574 10 0 59925 54900.00000 0 9795288.217 8311927.148 -21977905.456 10 0 59925 55800.00000 0 7115697.472 9020927.887 -22717991.811 10 0 59925 56700.00000 0 4434847.139 9944601.844 -23014308.569 10 0 59925 57600.00000 0 1820671.998 11064606.310 -22861179.486 10 0 59925 58500.00000 0 -663107.140 12350982.028 -22261748.709 10 0 59925 59400.00000 0 -2959416.971 13763332.143 -21227906.546 10 0 59925 60300.00000 0 -5019974.211 15252460.767 -19780039.906 10 0 59925 61200.00000 0 -6807047.925 16762400.676 -17946613.575 10 0 59925 62100.00000 0 -8294769.412 18232743.146 -15763592.071 10 0 59925 63000.00000 0 -9469937.000 19601170.327 -13273714.963 10 0 59925 63900.00000 0 -10332284.814 20806082.180 -10525641.583 10 0 59925 64800.00000 0 -10894207.713 21789206.591 -7572983.435 10 0 59925 65700.00000 0 -11179957.551 22498082.464 -4473244.689 10 0 59925 66600.00000 0 -11224348.143 22888311.585 -1286692.756 10 0 59925 67500.00000 0 -11071026.797 22925485.433 1924818.113 10 0 59925 68400.00000 0 -10770387.954 22586707.309 5099046.794 10 0 59925 69300.00000 0 -10377218.861 21861647.589 8174565.334 10 0 59925 70200.00000 0 -9948177.651 20753089.718 11091936.243 10 0 59925 71100.00000 0 -9539210.336 19276945.855 13794845.216 10 0 59925 72000.00000 0 -9203014.925 17461743.000 16231168.700 10 0 59925 72900.00000 0 -8986658.146 15347602.049 18353957.550 10 0 59925 73800.00000 0 -8929443.296 12984752.528 20122319.921 10 0 59925 74700.00000 0 -9061116.956 10431644.361 21502188.509 10 0 59925 75600.00000 0 -9400488.139 7752733.816 22466959.523 10 0 59925 76500.00000 0 -9954516.523 5016033.408 22997992.968 10 0 59925 77400.00000 0 -10717907.360 2290524.856 23084965.957 10 0 59925 78300.00000 0 -11673230.288 -356460.675 22726073.100 10 0 59925 79200.00000 0 -12791558.165 -2861789.489 21928070.213 10 0 59925 80100.00000 0 -14033601.102 -5168896.587 20706159.890 10 0 59925 81000.00000 0 -15351290.776 -7229885.148 19083719.836 10 0 59925 81900.00000 0 -16689751.627 -9007268.725 17091877.277 10 0 59925 82800.00000 0 -17989579.273 -10475284.480 14768935.356 10 0 59925 83700.00000 0 -19189333.302 -11620722.749 12159660.033 10 0 59925 84600.00000 0 -20228141.882 -12443237.680 9314438.683 10 0 59925 85500.00000 0 -21048309.938 -12955124.603 6288324.460 10 0 59926 0.00000 0 -21597821.366 -13180571.984 3139983.340 10 0 59926 900.00000 0 -21832629.332 -13154417.925 -69438.732 10 0 59926 1800.00000 0 -21718635.653 -12920462.004 -3277502.724 10 0 59926 2700.00000 0 -21233274.187 -12529403.314 -6421699.885 10 0 59926 3600.00000 0 -20366627.588 -12036491.312 -9440682.634 10 0 59926 4500.00000 0 -19122027.350 -11498989.634 -12275479.134 10 0 59926 5400.00000 0 -17516108.698 -10973561.536 -14870665.689 10 0 59926 6300.00000 0 -15578315.256 -10513689.633 -17175471.983 10 0 59926 7200.00000 0 -13349872.353 -10167241.571 -19144795.320 10 0 59926 8100.00000 0 -10882270.892 -9974287.218 -20740102.068 10 0 59926 9000.00000 0 -8235324.939 -9965262.225 -21930196.998 10 0 59926 9900.00000 0 -5474884.921 -10159557.751 -22691844.098 10 0 59926 10800.00000 0 -2670303.014 -10564597.512 -23010225.961 10 0 59926 11700.00000 0 108242.031 -11175442.133 -22879232.421 10 0 59926 12600.00000 0 2792447.427 -11974937.629 -22301572.948 10 0 59926 13500.00000 0 5318502.347 -12934401.295 -21288711.221 10 0 59926 14400.00000 0 7629507.474 -14014814.947 -19860624.116 10 0 59926 15300.00000 0 9677597.055 -15168473.618 -18045391.140 10 0 59926 16200.00000 0 11425675.587 -16341018.374 -15878623.825 10 0 59926 17100.00000 0 12848698.220 -17473765.671 -13402747.875 10 0 59926 18000.00000 0 13934443.574 -18506233.349 -10666153.813 10 0 59926 18900.00000 0 14683749.695 -19378755.394 -7722234.399 10 0 59926 19800.00000 0 15110206.703 -20035074.462 -4628329.049 10 0 59926 20700.00000 0 15239322.597 -20424802.600 -1444597.264 10 0 59926 21600.00000 0 15107200.834 -20505646.921 1767156.064 10 0 59926 22500.00000 0 14758788.384 -20245307.445 4944680.056 10 0 59926 23400.00000 0 14245770.453 -19622968.671 8026478.441 10 0 59926 24300.00000 0 13624202.167 -18630323.832 10952988.518 10 0 59926 25200.00000 0 12951977.653 -17272090.550 13667716.564 10 0 59926 26100.00000 0 12286242.848 -15565997.745 16118309.050 10 0 59926 27000.00000 0 11680859.888 -13542245.427 18257540.827 10 0 59926 27900.00000 0 11184028.063 -11242460.248 20044203.324 10 0 59926 28800.00000 0 10836159.244 -8718190.108 21443877.750 10 0 59926 29700.00000 0 10668094.945 -6028999.231 22429580.607 10 0 59926 30600.00000 0 10699737.942 -3240240.901 22982270.968 10 0 59926 31500.00000 0 10939154.512 -420597.824 23091211.133 10 0 59926 32400.00000 0 11382184.337 2360510.953 22754174.609 10 0 59926 33300.00000 0 12012574.683 5035552.271 21977497.551 10 0 59926 34200.00000 0 12802634.389 7541424.489 20775972.082 10 0 59926 35100.00000 0 13714382.174 9821823.670 19172582.302 10 0 59926 36000.00000 0 14701143.611 11829334.136 17198086.134 10 0 59926 36900.00000 0 15709532.501 13527157.658 14890448.843 10 0 59926 37800.00000 0 16681736.156 14890409.753 12294136.572 10 0 59926 38700.00000 0 17558010.820 15906928.598 9459280.976 10 0 59926 39600.00000 0 18279283.850 16577561.614 6440728.883 10 0 59926 40500.00000 0 18789753.713 16915916.237 3296993.468 10 0 59926 41400.00000 0 19039377.896 16947583.629 89125.998 10 0 59926 42300.00000 0 18986142.377 16708866.366 -3120470.434 10 0 59926 43200.00000 0 18598014.632 16245062.520 -6269261.979 10 0 59926 44100.00000 0 17854494.778 15608377.928 -9295815.316 10 0 59926 45000.00000 0 16747696.052 14855554.909 -12141013.593 10 0 59926 45900.00000 0 15282905.687 14045318.543 -14749231.502 10 0 59926 46800.00000 0 13478599.346 13235750.033 -17069444.420 10 0 59926 47700.00000 0 11365905.967 12481700.268 -19056247.713 10 0 59926 48600.00000 0 8987543.637 11832355.324 -20670764.301 10 0 59926 49500.00000 0 6396270.076 11329059.167 -21881420.991 10 0 59926 50400.00000 0 3652912.547 11003487.681 -22664577.037 10 0 59926 51300.00000 0 824060.127 10876252.815 -23004991.786 10 0 59926 52200.00000 0 -2020484.195 10955996.792 -22896121.945 10 0 59926 53100.00000 0 -4810383.800 11239014.878 -22340242.739 10 0 59926 54000.00000 0 -7477468.003 11709422.173 -21348391.224 10 0 59926 54900.00000 0 -9958337.260 12339856.245 -19940133.808 10 0 59926 55800.00000 0 -12196764.769 13092684.259 -18143163.809 10 0 59926 56700.00000 0 -14145794.468 13921661.634 -15992738.434 10 0 59926 57600.00000 0 -15769448.804 14773970.048 -13530967.792 10 0 59926 58500.00000 0 -17043976.641 15592546.666 -10805971.580 10 0 59926 59400.00000 0 -17958591.603 16318604.466 -7870921.544 10 0 59926 60300.00000 0 -18515673.049 16894235.906 -4782989.927 10 0 59926 61200.00000 0 -18730424.586 17264989.291 -1602225.785 10 0 59926 62100.00000 0 -18630008.006 17382308.987 1609617.964 10 0 59926 63000.00000 0 -18252192.265 17205737.090 4790283.348 10 0 59926 63900.00000 0 -17643577.085 16704784.778 7878208.484 10 0 59926 64800.00000 0 -16857467.973 15860396.017 10813708.176 10 0 59926 65700.00000 0 -15951493.207 14665943.591 13540111.973 10 0 59926 66600.00000 0 -14985063.257 13127717.199 16004839.011 10 0 59926 67500.00000 0 -14016778.790 11264884.276 18160390.672 10 0 59926 68400.00000 0 -13101894.700 9108925.761 19965244.019 10 0 59926 69300.00000 0 -12289944.634 6702570.314 21384630.924 10 0 59926 70200.00000 0 -11622623.414 4098270.432 22391190.062 10 0 59926 71100.00000 0 -11132013.823 1356282.097 22965481.139 10 0 59926 72000.00000 0 -10839230.181 -1457574.601 23096352.853 10 0 59926 72900.00000 0 -10753534.166 -4274383.957 22781158.439 10 0 59926 73800.00000 0 -10871959.369 -7024733.153 22025814.809 10 0 59926 74700.00000 0 -11179460.603 -9641336.159 20844703.608 10 0 59926 75600.00000 0 -11649582.900 -12061577.233 19260414.865 10 0 59926 76500.00000 0 -12245623.961 -14229870.824 17303336.307 10 0 59926 77400.00000 0 -12922243.647 -16099741.403 15011093.986 10 0 59926 78300.00000 0 -13627455.350 -17635537.487 12427852.488 10 0 59926 79200.00000 0 -14304917.866 -18813708.286 9603485.645 10 0 59926 80100.00000 0 -14896433.085 -19623588.730 6592631.533 10 0 59926 81000.00000 0 -15344545.298 -20067658.553 3453648.129 10 0 59926 81900.00000 0 -15595132.611 -20161262.767 247488.529 10 0 59926 82800.00000 0 -15599880.136 -19931803.364 -2963482.931 10 0 59926 83700.00000 0 -15318528.691 -19417434.663 -6116710.568 10 0 59926 84600.00000 0 -14720801.258 -18665316.173 -9150678.684 10 0 59926 85500.00000 0 -13787922.702 -17729496.196 -12006128.843 99